User: anonymous
Location: Oshawa
(43.9000°N, 78.8670°W)
Time: 02:23:30
(UTC-04:00)
Language:

Cosmos 1500 - Orbit

View from above orbital plane
View from above orbital plane
View from above satellite
View from above satellite

Ground track
Ground track

The orbit data is extracted from the following two-line orbital elements,

1 14372U 83099A   14294.76719527  .00009091  00000-0  52362-3 0  6683
2 14372 082.5186 218.9503 0016602 200.0527 219.6416 15.12171770690958
Epoch (UTC): 21 October 2014 18:24:45
Eccentricity: 0.0016602
inclination: 82.5186°
perigee height: 518 km
apogee height: 541 km
right ascension of ascending node: 218.9503°
argument of perigee: 200.0527°
revolutions per day: 15.12171770
mean anomaly at epoch: 219.6416°
orbit number at epoch: 69095

The dashed part of the orbit path shows where the satellite is in the earth's shadow,  

DLR